Starlink 33750

operational
NORAD ID: 63513 Int'l Des: 2025-071 Owner: SPXS Country: US Constellation: starlink
LEOCIRCULAR

Über Starlink 33750

Beschreibung wird geladen...

Live-Position

3D-Globus wird geladen...

Nächste Überflüge

Höhenverlauf

Altitude vs Time

uPlot chart will show altitude changes over time

Zweizeiliger Elementsatz

1 63513U 25071W 25352.87284835 .00033693 00000-0 11443-2 0 9994
2 63513 53.1579 155.4733 0000958 55.7877 304.3214 15.30208252 40378
Epoch: 18. Dez. 2025 • Age: 9 hours

Aktueller Status

Höhe 481.6 km
Geschwindigkeit 7.62 km/s
Subsatellitenpunkt -21.03°S, 177.09°E
Startdatum 7. Apr. 2025
Alter 0.6 years
Typ internet

Technische Details

Klassifizierung Payload
Masse 575.00 kg
Trockenmasse 530.00 kg
Gesamtmasse 575.00 kg
Länge 0.30 m
Durchmesser 4.10 m
Spannweite 29.00 m
Form Box + pan
Hersteller SPXS
Bus-Typ Starlink V2MO
Phasenstatus In Orbit
Besitzer/Staat SPXS/US

Große Konstellationen

Loading constellations...